MIDAS 5 DEB, 18603

Orbit data source: Space-Track

MIDAS 5 DEB, 18603 is space debris in LEO originally from a launch on Mon, 09 Apr 1962 UTC via an ATLAS AGENA B launch vehicle from the Air Force Western Test Range (AFWTR). Debris objects in space refer to the collection of defunct objects orbiting the Earth. Examples of debris include non-operational satellites, rocket bodies, and fragments generated from explosions, collisions, or faulty payload assembly.

Loading next visibility...
Identifier
18603, 1962-010G
Orbit
LEO
Last TLE update
1 day ago
Origin
Manufacturer
MIT-LL
Mission
Spacecraft
Bus & Motor
WESTFORD DRAG, Unknown motor
Mass
~1 kg wet, ~1 kg dry
Launch date (UTC)
1962-04-09 (63 years ago)
Launch vehicle
ATLAS AGENA B
Launch site
Air Force Western Test Range (AFWTR)
Object type
Payload
Rocket body
Debris
Shape & HBR
Cyl, 0.5 m
Radar Cross Section
0.094 m², Medium (>0.1 m² and < 1m²)

Expand to show TLE details & history

TLE from 1 day ago
0 MIDAS 5 DEB
1 18603U 62010G   25191.00453116  .00000004  00000-0 -27687-3 0  9993
2 18603  86.6878  15.5030 0289201 121.8382  34.6949  9.41011805346359
Epoch: 2025-07-10T00:06Z
TLE epoch observation values (Epoch: 2025-07-10T00:06:31.492Z)
Latitude
21.49309°
Longitude
-95.60552°
Altitude
2,878.295 km
Speed
6.641 km/s
True Right ascension
12h 56m 48s
True Declination
21° 24' 11"
Sunlit
Object was in daylight at epoch
Visualization orbit readout
Latitude
-67.9941°
Longitude
-86.26281°
Altitude
3,286.703 km
Speed
6.368 km/s
Apparent Right ascension
04h 43m 55s
Apparent Declination
-82° 45' 56"
Sunlit
Object is in daylight
Visualization observer readout
Local Sidereal Time
14:31:41
Azimuth
185.66° SSW
Elevation
-45.849°
Doppler factor
1
Orbital elements
Apogee altitude
3,370.596 km
Perigee altitude
2,822.576 km
Semi-major axis
9,474.723 km
Eccentricity
0.02892
Inclination
86.6878°
RAAN
15.503°
Arg. of periapsis
121.8382°
True anomaly
Unknown
Mean anomaly
34.6949°
Eccentric anomaly
Unknown
Mean motion
2.35339 °/min
Orbital period
152.97 mins
BSTAR
-0.00027687
Loading maneuver chart data...
Loading SW <> Apogee altitude chart data...
Loading historical data...
Loading historical data...
Loading historical data...
Loading historical data...
Loading historical data...
Loading historical data...
Loading historical data...

MIDAS 5 DEB Visibility forecast

Observer location: undefined°, undefined°

Span
Click to sort rows by Start time (UTC) header in descending order
Start Az.
Max El. time (UTC)
Max El. Az.
Max El.
End time (UTC)
End Az.
26 mins2025-07-11 10:49:09.343Z130.134° SE2025-07-11 11:03:09.343Z70.105° E29.837°2025-07-11 11:15:09.343Z15.739° NNE
29 mins2025-07-11 13:20:09.343Z195.86° SSW2025-07-11 13:35:09.343Z283.196° WNW42.502°2025-07-11 13:49:09.343Z358.05° N
12 mins2025-07-11 16:07:09.343Z284.217° WNW2025-07-11 16:12:09.343Z304.198° NW13.169°2025-07-11 16:19:09.343Z332.769° NNW
18 mins2025-07-11 21:43:09.343Z23.206° NE2025-07-11 21:51:09.343Z60.305° ENE19.673°2025-07-11 22:01:09.343Z105.163° ESE
28 mins2025-07-12 00:14:09.343Z357.708° N2025-07-12 00:27:09.343Z20.404° NNE44.945°2025-07-12 00:42:09.343Z181.048° SSW
|